Location: Rounton
(54.4000°N, 1.3500°W)
Time: 19:04:24
(UTC+01:00)

S-56A Canister/Altair - Pass Details

Date: 16 September 2024
Orbit: 636 x 2487 km, 38.9° (Epoch: 06 October)

Event Time Altitude Azimuth Distance (km) Brightness Sun altitude
Rises 00:32:38 0° 261° (W) 4,199 11.3 -32.8°
Enters shadow 00:35:13 - 250° (WSW) 3,678 10.9 -32.8°
Reaches altitude 10° 00:36:10 10° 245° (WSW) 3,529 - -32.8°
Maximum altitude 00:42:15 20° 203° (SSW) 3,298 - -32.9°
Drops below altitude 10° 00:49:48 10° 164° (SSE) 4,520 - -33.0°
Sets 00:55:16 0° 150° (SSE) 5,807 - -33.1°
